| time (UTC) | temp F | wind direction | speed knots | gust knots | rain 1hr in | rain 24hr in | rain mn in | humidity % | barometer mb |
| 20260505041445 | 76 | 133 | 0.0 | 0.0 | 0.00 | 0.00 | 0.00 | 99 | 1018.5 |
| 20260505040943 | 76 | 126 | 0.0 | 0.0 | 0.00 | 0.00 | 0.00 | 99 | 1018.5 |
| 20260505040440 | 76 | 123 | 0.0 | 0.0 | 0.00 | 0.00 | 0.00 | 99 | 1018.4 |
| 20260505035937 | 76 | 120 | 0.0 | 0.0 | 0.00 | 0.00 | 0.00 | 99 | 1018.4 |
| 20260505035433 | 76 | 126 | 0.0 | 0.0 | 0.00 | 0.00 | 0.00 | 99 | 1018.1 |
| 20260505034930 | 76 | 128 | 0.0 | 0.0 | 0.00 | 0.00 | 0.00 | 99 | 1018.5 |
| 20260505034426 | 76 | 131 | 0.0 | 0.0 | 0.00 | 0.00 | 0.00 | 99 | 1018.8 |
| 20260505033924 | 76 | 129 | 0.0 | 0.0 | 0.00 | 0.00 | 0.00 | 99 | 1018.6 |
| 20260505033420 | 76 | 122 | 0.0 | 0.0 | 0.00 | 0.00 | 0.00 | 99 | 1018.8 |
| 20260505032919 | 76 | 126 | 0.0 | 0.0 | 0.00 | 0.00 | 0.00 | 99 | 1018.8 |
| 20260505032415 | 76 | 121 | 0.0 | 0.0 | 0.00 | 0.00 | 0.00 | 99 | 1018.8 |
| 20260505031912 | 77 | 121 | 0.0 | 0.0 | 0.00 | 0.00 | 0.00 | 99 | 1018.6 |
| 20260505031409 | 77 | 125 | 0.0 | 0.0 | 0.00 | 0.00 | 0.00 | 99 | 1018.8 |
| 20260505030906 | 77 | 120 | 0.0 | 0.0 | 0.00 | 0.00 | 0.00 | 99 | 1018.9 |
| 20260505030402 | 77 | 127 | 0.0 | 0.0 | 0.00 | 0.00 | 0.00 | 99 | 1019.0 |
| 20260505025857 | 77 | 128 | 0.0 | 0.0 | 0.00 | 0.00 | 0.00 | 99 | 1018.7 |
| 20260505025355 | 77 | 121 | 0.0 | 0.0 | 0.00 | 0.00 | 0.00 | 99 | 1018.9 |
| 20260505024854 | 77 | 121 | 0.0 | 0.0 | 0.00 | 0.00 | 0.00 | 99 | 1018.7 |
| 20260505024351 | 77 | 121 | 0.0 | 0.0 | 0.00 | 0.00 | 0.00 | 98 | 1018.7 |
| 20260505023848 | 77 | 120 | 0.0 | 0.0 | 0.00 | 0.00 | 0.00 | 98 | 1018.7 |
| 20260505023345 | 78 | 131 | 0.0 | 0.0 | 0.00 | 0.00 | 0.00 | 98 | 1018.6 |
| 20260505022842 | 77 | 139 | 0.0 | 0.0 | 0.00 | 0.00 | 0.00 | 98 | 1018.9 |
| 20260505022339 | 78 | 138 | 0.0 | 0.0 | 0.00 | 0.00 | 0.00 | 98 | 1018.9 |
| 20260505021836 | 78 | 124 | 0.0 | 0.0 | 0.00 | 0.00 | 0.00 | 98 | 1018.7 |
| 20260505021332 | 78 | 120 | 0.0 | 0.0 | 0.00 | 0.00 | 0.00 | 97 | 1018.3 |
| 20260505020828 | 78 | 122 | 0.0 | 0.0 | 0.00 | 0.00 | 0.00 | 97 | 1018.3 |
| 20260505020324 | 78 | 117 | 0.0 | 0.0 | 0.00 | 0.00 | 0.00 | 96 | 1018.6 |
| 20260505015821 | 78 | 134 | 0.0 | 0.0 | 0.00 | 0.00 | 0.00 | 96 | 1018.2 |
| 20260505015318 | 78 | 133 | 0.0 | 0.0 | 0.00 | 0.00 | 0.00 | 96 | 1018.6 |
| 20260505014815 | 78 | 126 | 0.0 | 0.0 | 0.00 | 0.00 | 0.00 | 96 | 1018.4 |
| 20260505014312 | 79 | 132 | 0.0 | 0.0 | 0.00 | 0.00 | 0.00 | 95 | 1018.2 |
| 20260505013809 | 79 | 128 | 0.0 | 0.0 | 0.00 | 0.00 | 0.00 | 95 | 1018.1 |
| 20260505013306 | 79 | 128 | 0.0 | 0.0 | 0.00 | 0.00 | 0.00 | 94 | 1018.2 |
| 20260505012805 | 79 | 129 | 0.0 | 0.0 | 0.00 | 0.00 | 0.00 | 94 | 1018.1 |
| 20260505012304 | 79 | 123 | 0.0 | 0.0 | 0.00 | 0.00 | 0.00 | 94 | 1018.2 |
| 20260505011757 | 79 | 129 | 0.0 | 0.0 | 0.00 | 0.00 | 0.00 | 94 | 1018.3 |
| 20260505011255 | 79 | 130 | 0.0 | 0.0 | 0.00 | 0.00 | 0.00 | 94 | 1018.2 |
| 20260505010750 | 80 | 123 | 0.0 | 0.9 | 0.00 | 0.00 | 0.00 | 94 | 1018.1 |
| 20260505010247 | 79 | 124 | 0.0 | 0.9 | 0.00 | 0.00 | 0.00 | 95 | 1017.9 |
| 20260505005743 | 79 | 125 | 0.0 | 0.9 | 0.00 | 0.00 | 0.00 | 95 | 1018.0 |
| 20260505005240 | 79 | 124 | 0.9 | 0.9 | 0.00 | 0.00 | 0.00 | 94 | 1017.8 |
| 20260505004737 | 79 | 120 | 0.0 | 0.0 | 0.00 | 0.00 | 0.00 | 95 | 1018.0 |
| 20260505004233 | 80 | 123 | 0.0 | 0.9 | 0.00 | 0.00 | 0.00 | 94 | 1017.8 |
| 20260505003731 | 80 | 128 | 0.0 | 0.9 | 0.00 | 0.00 | 0.00 | 94 | 1017.7 |
| 20260505003229 | 79 | 121 | 0.0 | 0.0 | 0.00 | 0.00 | 0.00 | 94 | 1017.7 |
| 20260505002725 | 79 | 120 | 0.0 | 0.0 | 0.00 | 0.00 | 0.00 | 94 | 1017.8 |
| 20260505002222 | 80 | 125 | 0.0 | 0.0 | 0.00 | 0.00 | 0.00 | 93 | 1017.9 |
| 20260505001720 | 80 | 123 | 0.0 | 0.0 | 0.00 | 0.00 | 0.00 | 93 | 1017.7 |
| 20260505001217 | 80 | 121 | 0.0 | 0.0 | 0.00 | 0.00 | 0.00 | 92 | 1017.7 |
| 20260505000714 | 80 | 129 | 0.0 | 0.0 | 0.00 | 0.00 | 0.00 | 92 | 1017.4 |
| 20260505000212 | 80 | 100 | 0.0 | 0.0 | 0.00 | 0.00 | 0.00 | 91 | 1017.3 |
| 20260504235708 | 80 | 119 | 0.0 | 0.0 | 0.00 | 0.00 | 0.00 | 90 | 1017.2 |
| 20260504235204 | 80 | 123 | 0.0 | 0.0 | 0.00 | 0.00 | 0.00 | 90 | 1017.5 |
| 20260504234702 | 80 | 115 | 0.0 | 0.0 | 0.00 | 0.00 | 0.00 | 90 | 1017.5 |
| 20260504234159 | 80 | 121 | 0.0 | 0.9 | 0.00 | 0.00 | 0.00 | 89 | 1017.3 |
| 20260504233654 | 80 | 124 | 0.0 | 0.0 | 0.00 | 0.00 | 0.00 | 88 | 1017.2 |
| 20260504233150 | 81 | 113 | 0.0 | 0.9 | 0.00 | 0.00 | 0.00 | 87 | 1017.3 |
| 20260504232648 | 81 | 122 | 0.0 | 0.0 | 0.00 | 0.00 | 0.00 | 86 | 1017.1 |
| 20260504232145 | 81 | 117 | 0.0 | 0.9 | 0.00 | 0.00 | 0.00 | 86 | 1017.5 |
| 20260504231642 | 82 | 121 | 0.0 | 0.0 | 0.00 | 0.00 | 0.00 | 83 | 1017.0 |
| 20260504231138 | 82 | 115 | 0.0 | 0.9 | 0.00 | 0.00 | 0.00 | 80 | 1017.2 |
| 20260504230634 | 83 | 114 | 0.9 | 0.9 | 0.00 | 0.00 | 0.00 | 80 | 1017.2 |
| 20260504230133 | 82 | 128 | 0.0 | 0.9 | 0.00 | 0.00 | 0.00 | 79 | 1017.1 |
| 20260504225631 | 83 | 133 | 0.0 | 0.9 | 0.00 | 0.00 | 0.00 | 82 | 1017.2 |
| 20260504225127 | 83 | 118 | 0.0 | 0.0 | 0.00 | 0.00 | 0.00 | 80 | 1017.1 |
| 20260504224624 | 83 | 93 | 0.0 | 0.9 | 0.00 | 0.00 | 0.00 | 82 | 1017.1 |
| 20260504224121 | 83 | 103 | 1.7 | 1.7 | 0.00 | 0.00 | 0.00 | 82 | 1017.0 |
| 20260504223618 | 83 | 143 | 0.9 | 0.9 | 0.00 | 0.00 | 0.00 | 82 | 1017.1 |
| 20260504223114 | 83 | 150 | 0.9 | 1.7 | 0.00 | 0.00 | 0.00 | 83 | 1017.0 |
| 20260504222611 | 83 | 133 | 0.9 | 1.7 | 0.00 | 0.00 | 0.00 | 82 | 1016.9 |
| 20260504222108 | 84 | 119 | 0.0 | 0.9 | 0.00 | 0.00 | 0.00 | 81 | 1016.9 |
| 20260504221605 | 84 | 142 | 0.9 | 1.7 | 0.00 | 0.00 | 0.00 | 81 | 1016.5 |
| 20260504221102 | 84 | 83 | 0.9 | 1.7 | 0.00 | 0.00 | 0.00 | 82 | 1016.8 |
| 20260504220558 | 84 | 117 | 0.9 | 1.7 | 0.00 | 0.00 | 0.00 | 82 | 1016.7 |
| 20260504220055 | 84 | 111 | 0.0 | 1.7 | 0.00 | 0.00 | 0.00 | 79 | 1016.4 |
| 20260504215552 | 85 | 65 | 1.7 | 1.7 | 0.00 | 0.00 | 0.00 | 75 | 1016.4 |
| 20260504215050 | 85 | 133 | 0.0 | 0.9 | 0.00 | 0.00 | 0.00 | 70 | 1016.4 |
| 20260504214545 | 86 | 136 | 0.0 | 1.7 | 0.00 | 0.00 | 0.00 | 70 | 1016.3 |
| 20260504214042 | 86 | 165 | 2.6 | 4.3 | 0.00 | 0.00 | 0.00 | 68 | 1016.3 |
| 20260504213538 | 87 | 126 | 1.7 | 2.6 | 0.00 | 0.00 | 0.00 | 68 | 1016.0 |
| 20260504213035 | 87 | 269 | 2.6 | 6.1 | 0.00 | 0.00 | 0.00 | 68 | 1016.1 |
| 20260504212531 | 87 | 216 | 2.6 | 5.2 | 0.00 | 0.00 | 0.00 | 68 | 1016.2 |
| 20260504212029 | 87 | 151 | 0.9 | 4.3 | 0.00 | 0.00 | 0.00 | 67 | 1016.1 |
| 20260504211525 | 87 | 177 | 2.6 | 7.0 | 0.00 | 0.00 | 0.00 | 66 | 1016.0 |
| 20260504211023 | 87 | 153 | 1.7 | 4.3 | 0.00 | 0.00 | 0.00 | 66 | 1016.1 |
| 20260504210519 | 87 | 252 | 4.3 | 11.3 | 0.00 | 0.00 | 0.00 | 66 | 1016.2 |
| 20260504210016 | 87 | 140 | 2.6 | 7.8 | 0.00 | 0.00 | 0.00 | 66 | 1016.0 |
| 20260504205514 | 87 | 224 | 3.5 | 7.0 | 0.00 | 0.00 | 0.00 | 66 | 1016.2 |
| 20260504205012 | 87 | 252 | 4.3 | 7.8 | 0.00 | 0.00 | 0.00 | 65 | 1015.9 |
| 20260504204510 | 88 | 157 | 2.6 | 4.3 | 0.00 | 0.00 | 0.00 | 64 | 1016.1 |
| 20260504204009 | 88 | 169 | 2.6 | 5.2 | 0.00 | 0.00 | 0.00 | 64 | 1016.1 |
| 20260504203506 | 88 | 276 | 4.3 | 9.6 | 0.00 | 0.00 | 0.00 | 64 | 1016.1 |
| 20260504203003 | 88 | 121 | 2.6 | 7.8 | 0.00 | 0.00 | 0.00 | 65 | 1016.3 |
| 20260504202458 | 89 | 204 | 3.5 | 8.7 | 0.00 | 0.00 | 0.00 | 63 | 1016.2 |
| 20260504201955 | 89 | 134 | 0.9 | 7.0 | 0.00 | 0.00 | 0.00 | 64 | 1016.4 |
| 20260504201453 | 88 | 215 | 5.2 | 11.3 | 0.00 | 0.00 | 0.00 | 63 | 1016.0 |
| 20260504200950 | 89 | 249 | 5.2 | 7.8 | 0.00 | 0.00 | 0.00 | 61 | 1016.2 |
| 20260504200447 | 89 | 237 | 7.0 | 9.6 | 0.00 | 0.00 | 0.00 | 62 | 1016.0 |
| 20260504195943 | 90 | 152 | 3.5 | 7.8 | 0.00 | 0.00 | 0.00 | 60 | 1016.2 |
| 20260504195439 | 89 | 200 | 5.2 | 9.6 | 0.00 | 0.00 | 0.00 | 62 | 1016.2 |
| 20260504194936 | 89 | 182 | 3.5 | 7.0 | 0.00 | 0.00 | 0.00 | 61 | 1016.1 |
| 20260504194432 | 90 | 218 | 2.6 | 7.0 | 0.00 | 0.00 | 0.00 | 62 | 1016.2 |
| 20260504193928 | 91 | 233 | 5.2 | 9.6 | 0.00 | 0.00 | 0.00 | 60 | 1016.4 |
| 20260504193426 | 90 | 220 | 4.3 | 7.0 | 0.00 | 0.00 | 0.00 | 61 | 1016.3 |
| 20260504192924 | 89 | 235 | 6.1 | 9.6 | 0.00 | 0.00 | 0.00 | 62 | 1016.2 |
| 20260504192421 | 90 | 240 | 3.5 | 8.7 | 0.00 | 0.00 | 0.00 | 61 | 1016.1 |
| 20260504191920 | 91 | 218 | 6.1 | 11.3 | 0.00 | 0.00 | 0.00 | 61 | 1016.3 |
| 20260504191418 | 91 | 155 | 3.5 | 7.0 | 0.00 | 0.00 | 0.00 | 61 | 1016.4 |
| 20260504190913 | 90 | 257 | 5.2 | 12.2 | 0.00 | 0.00 | 0.00 | 61 | 1016.2 |
| 20260504190408 | 92 | 138 | 2.6 | 6.1 | 0.00 | 0.00 | 0.00 | 57 | 1016.2 |
| 20260504185906 | 91 | 183 | 3.5 | 7.8 | 0.00 | 0.00 | 0.00 | 58 | 1016.3 |
| 20260504185403 | 92 | 254 | 3.5 | 6.1 | 0.00 | 0.00 | 0.00 | 56 | 1016.3 |
| 20260504184858 | 92 | 188 | 5.2 | 8.7 | 0.00 | 0.00 | 0.00 | 57 | 1016.3 |
| 20260504184354 | 91 | 175 | 2.6 | 6.1 | 0.00 | 0.00 | 0.00 | 56 | 1016.2 |
| 20260504183850 | 91 | 231 | 5.2 | 7.8 | 0.00 | 0.00 | 0.00 | 57 | 1016.4 |
| 20260504183348 | 92 | 261 | 8.7 | 12.2 | 0.00 | 0.00 | 0.00 | 55 | 1016.1 |
| 20260504182845 | 92 | 176 | 1.7 | 8.7 | 0.00 | 0.00 | 0.00 | 55 | 1016.3 |
| 20260504182343 | 92 | 137 | 4.3 | 7.0 | 0.00 | 0.00 | 0.00 | 53 | 1016.3 |
| 20260504181839 | 91 | 253 | 7.0 | 9.6 | 0.00 | 0.00 | 0.00 | 55 | 1016.6 |
| 20260504181337 | 91 | 217 | 4.3 | 9.6 | 0.00 | 0.00 | 0.00 | 55 | 1016.7 |
| 20260504180836 | 91 | 206 | 4.3 | 12.2 | 0.00 | 0.00 | 0.00 | 55 | 1016.6 |
| 20260504180334 | 90 | 298 | 7.8 | 11.3 | 0.00 | 0.00 | 0.00 | 54 | 1016.7 |
| 20260504175832 | 91 | 252 | 6.1 | 7.8 | 0.00 | 0.00 | 0.00 | 53 | 1016.8 |
| 20260504175328 | 91 | 208 | 4.3 | 7.8 | 0.00 | 0.00 | 0.00 | 51 | 1016.9 |
| 20260504174826 | 91 | 208 | 3.5 | 8.7 | 0.00 | 0.00 | 0.00 | 50 | 1016.8 |
| 20260504174324 | 91 | 254 | 4.3 | 13.0 | 0.00 | 0.00 | 0.00 | 51 | 1017.0 |
| 20260504173820 | 92 | 203 | 6.1 | 11.3 | 0.00 | 0.00 | 0.00 | 50 | 1017.1 |
| 20260504173317 | 93 | 237 | 5.2 | 7.0 | 0.00 | 0.00 | 0.00 | 48 | 1016.9 |
| 20260504172814 | 93 | 128 | 1.7 | 5.2 | 0.00 | 0.00 | 0.00 | 48 | 1017.1 |
| 20260504172311 | 92 | 227 | 4.3 | 4.3 | 0.00 | 0.00 | 0.00 | 47 | 1017.4 |
| 20260504171807 | 92 | 245 | 5.2 | 7.8 | 0.00 | 0.00 | 0.00 | 47 | 1017.1 |
| 20260504171304 | 93 | 229 | 3.5 | 7.0 | 0.00 | 0.00 | 0.00 | 49 | 1017.3 |
| 20260504170801 | 93 | 216 | 2.6 | 7.8 | 0.00 | 0.00 | 0.00 | 48 | 1017.3 |
| 20260504170258 | 92 | 66 | 2.6 | 7.8 | 0.00 | 0.00 | 0.00 | 49 | 1017.3 |
| 20260504160216 | 92 | 223 | 2.6 | 9.6 | 0.00 | 0.00 | 0.00 | 56 | 1017.6 |
| 20260504151144 | 89 | 143 | 7.8 | 13.0 | 0.00 | 0.00 | 0.00 | 59 | 1017.9 |
| 20260504150641 | 90 | 218 | 4.3 | 8.7 | 0.00 | 0.00 | 0.00 | 56 | 1018.2 |
| 20260504150138 | 90 | 191 | 2.6 | 7.0 | 0.00 | 0.00 | 0.00 | 55 | 1018.1 |
| 20260504141107 | 88 | 123 | 0.9 | 1.7 | 0.00 | 0.00 | 0.00 | 67 | 1018.0 |
| 20260504140604 | 89 | 93 | 0.9 | 4.3 | 0.00 | 0.00 | 0.00 | 70 | 1018.0 |
| 20260504130528 | 87 | 148 | 2.6 | 2.6 | 0.00 | 0.00 | 0.00 | 70 | 1017.9 |
| 20260504110415 | 78 | 135 | 0.0 | 0.0 | 0.00 | 0.00 | 0.00 | 86 | 1018.2 |
| 20260504100332 | 71 | 135 | 0.0 | 0.0 | 0.00 | 0.00 | 0.00 | 99 | 1017.6 |
| 20260504081726 | 73 | 131 | 0.0 | 0.0 | 0.00 | 0.00 | 0.00 | 94 | 1017.1 |
| 20260504081222 | 73 | 133 | 0.9 | 1.7 | 0.00 | 0.00 | 0.00 | 93 | 1017.1 |
| 20260504080718 | 73 | 130 | 0.0 | 0.0 | 0.00 | 0.00 | 0.00 | 94 | 1016.8 |
| 20260504080215 | 74 | 131 | 0.0 | 0.0 | 0.00 | 0.00 | 0.00 | 93 | 1017.1 |
| 20260504070142 | 74 | 102 | 0.9 | 1.7 | 0.00 | 0.00 | 0.00 | 91 | 1017.0 |
| 20260504050531 | 75 | 119 | 0.0 | 0.9 | 0.00 | 0.00 | 0.00 | 90 | 1017.9 |